Terminal Aerodrome Forecast
Issued by NWS

Home | Current Version | Previous Version | Text Only | Print | Product List | Glossary On
Versions: 1 2 3 4 5 6 7 8 9 10 11 12 13
000
FTUS46 KPDT 052320
TAFALW
TAF
KALW 052320Z 0600/0624 24010KT P6SM SCT050 SCT250
     FM060300 19009KT P6SM SCT250
     FM061000 18007KT P6SM SCT100 SCT200
     FM061800 22008KT P6SM BKN100 BKN200=

USA.gov is the U.S. government's official web portal to all federal, state and local government web resources and services.